Manning, SC

11:55 AM EDT on July 24, 2017 (GMT -0400)
Santee Cooper Regional

Weather History for KMNI - June, 2013

Change the Weather History Date:

Friday, June 21, 2013

  Actual Average (KCKI) Record (KCKI)
Temperature  
Mean Temperature 76 °F -  
Max Temperature 87 °F 90 °F 98 °F (2011)
Min Temperature 64 °F 65 °F 62 °F (2013)
Cooling Degree Days 10    
Growing Degree Days 26 (Base 50)    
Moisture  
Dew Point 66 °F    
Average Humidity 77    
Maximum Humidity 100    
Minimum Humidity 23    
Precipitation  
Precipitation 0.00 in - - ()
Sea Level Pressure  
Sea Level Pressure 30.18 in    
Wind  
Wind Speed 3 mph (NNE)    
Max Wind Speed 12 mph    
Max Gust Speed 17 mph    
Visibility 9 miles    
Events      
Averages and records for this station are not official NWS values.
T = Trace of Precipitation, MM = Missing Value Source: NWS Daily Summary

Daily Weather History Graph

Daily Weather History Graph

Search for Another Location

Airport or City:

Trip Planner

Search our weather history database for the weather conditions in past years. The results will help you decide how hot, cold, wet, or windy it might be!

Date:

Astronomy

Jun. 21, 2013 Rise Set
Actual Time 6:11 AM EDT 8:34 PM EDT
Civil Twilight 5:42 AM EDT 9:03 PM EDT
Nautical Twilight 5:06 AM EDT 9:38 PM EDT
Astronomical Twilight 4:27 AM EDT 10:18 PM EDT
Moon 6:46 PM EDT (6/21) 4:21 AM EDT (6/21)
Length of Visible Light 15h 21m
Length of Day
14h 23m
Waxing Gibbous, 95% of the Moon is Illuminated
Jun 21
Waxing Gibbous
Jun 23
Full
Jun 30
Last Quarter
Jul 8
New
Jul 15
First Quarter

Hourly Weather History & Observations

Time (EDT) Temp. Heat Index Dew Point Humidity Pressure Visibility Wind Dir Wind Speed Gust Speed Precip Events Conditions
12:15 AM 69.8 °F - 69.8 °F 100% 30.18 in 7.0 mi Calm Calm - N/A   Clear
12:35 AM 69.8 °F - 69.8 °F 100% 30.18 in 10.0 mi Calm Calm - N/A   Clear
12:55 AM 68.0 °F - 68.0 °F 100% 30.18 in 10.0 mi Calm Calm - N/A   Clear
1:15 AM 68.0 °F - 68.0 °F 100% 30.18 in 10.0 mi Calm Calm - N/A   Clear
1:35 AM 68.0 °F - 68.0 °F 100% 30.18 in 10.0 mi Calm Calm - N/A   Clear
1:55 AM 69.8 °F - 69.8 °F 100% 30.18 in 10.0 mi Calm Calm - N/A   Clear
2:15 AM 69.8 °F - 69.8 °F 100% 30.18 in 10.0 mi Calm Calm - N/A   Clear
2:35 AM 68.0 °F - 68.0 °F 100% 30.17 in 7.0 mi NNE 3.5 mph - N/A   Clear
2:55 AM 68.0 °F - 68.0 °F 100% 30.16 in 7.0 mi NNE 3.5 mph - N/A   Clear
3:15 AM 68.0 °F - 68.0 °F 100% 30.16 in 7.0 mi Calm Calm - N/A   Clear
3:35 AM 68.0 °F - 68.0 °F 100% 30.16 in 7.0 mi NNE 3.5 mph - N/A   Clear
3:55 AM 68.0 °F - 68.0 °F 100% 30.16 in 7.0 mi NE 3.5 mph - N/A   Clear
4:15 AM 68.0 °F - 68.0 °F 100% 30.16 in 7.0 mi NNE 4.6 mph - N/A   Clear
4:35 AM 68.0 °F - 68.0 °F 100% 30.16 in 7.0 mi NNE 5.8 mph - N/A   Clear
4:55 AM 68.0 °F - 68.0 °F 100% 30.16 in 7.0 mi NNE 4.6 mph - N/A   Clear
5:15 AM 66.2 °F - 66.2 °F 100% 30.17 in 10.0 mi NNE 5.8 mph - N/A   Clear
5:35 AM 64.4 °F - 64.4 °F 100% 30.17 in 10.0 mi NNE 4.6 mph - N/A   Clear
5:55 AM 64.4 °F - 64.4 °F 100% 30.17 in 7.0 mi North 3.5 mph - N/A   Clear
6:15 AM 64.4 °F - 64.4 °F 100% 30.18 in 7.0 mi NNE 3.5 mph - N/A   Clear
6:35 AM 64.4 °F - 64.4 °F 100% 30.19 in 7.0 mi Calm Calm - N/A   Clear
6:55 AM 64.4 °F - 64.4 °F 100% 30.19 in 7.0 mi Calm Calm - N/A   Clear
7:15 AM 64.4 °F - 64.4 °F 100% 30.20 in 7.0 mi North 4.6 mph - N/A   Clear
7:35 AM 66.2 °F - 66.2 °F 100% 30.20 in 7.0 mi North 4.6 mph - N/A   Clear
7:55 AM 68.0 °F - 68.0 °F 100% 30.21 in 7.0 mi North 6.9 mph - N/A   Clear
8:15 AM 68.0 °F - 66.2 °F 94% 30.21 in 7.0 mi NNE 4.6 mph - N/A   Clear
8:35 AM 69.8 °F - 66.2 °F 88% 30.21 in 7.0 mi NNE 4.6 mph - N/A   Clear
8:55 AM 71.6 °F - 66.2 °F 83% 30.21 in 7.0 mi NNE 8.1 mph - N/A   Clear
9:15 AM 71.6 °F - 66.2 °F 83% 30.22 in 7.0 mi NNE 6.9 mph - N/A   Clear
9:35 AM 73.4 °F - 68.0 °F 83% 30.22 in 7.0 mi NNE 6.9 mph - N/A   Clear
9:55 AM 75.2 °F - 66.2 °F 73% 30.22 in 7.0 mi NNE 8.1 mph - N/A   Clear
10:15 AM 77.0 °F - 68.0 °F 74% 30.22 in 5.0 mi NE 5.8 mph - N/A   Clear
10:35 AM 78.8 °F - 68.0 °F 69% 30.21 in 7.0 mi NE 6.9 mph - N/A   Clear
10:55 AM 78.8 °F - 68.0 °F 69% 30.21 in 7.0 mi North 9.2 mph - N/A   Clear
11:15 AM 80.6 °F 83.2 °F 68.0 °F 65% 30.21 in 7.0 mi ENE 9.2 mph - N/A   Clear
11:35 AM 80.6 °F 83.9 °F 69.8 °F 70% 30.21 in 10.0 mi NNE 6.9 mph - N/A   Clear
11:55 AM 80.6 °F 83.9 °F 69.8 °F 70% 30.21 in 7.0 mi NNE 9.2 mph - N/A   Clear
12:15 PM 82.4 °F 86.3 °F 69.8 °F 66% 30.21 in 7.0 mi NNE 9.2 mph - N/A   Clear
12:35 PM 82.4 °F - 41.0 °F 23% 30.21 in 7.0 mi NE 8.1 mph - N/A   Clear
12:55 PM 82.4 °F - 44.6 °F 26% 30.20 in 7.0 mi NE 11.5 mph 17.3 mph N/A   Scattered Clouds
1:15 PM 82.4 °F - 46.4 °F 28% 30.20 in 10.0 mi North 4.6 mph - N/A   Scattered Clouds
1:35 PM 84.2 °F - 51.8 °F 33% 30.20 in 10.0 mi NNE 8.1 mph - N/A   Scattered Clouds
1:55 PM 84.2 °F - 51.8 °F 33% 30.19 in 10.0 mi NNE 8.1 mph - N/A   Scattered Clouds
2:15 PM 86.0 °F 89.4 °F 68.0 °F 55% 30.18 in 10.0 mi NNE 4.6 mph - N/A   Clear
2:35 PM 86.0 °F 91.8 °F 71.6 °F 62% 30.18 in 10.0 mi North 6.9 mph - N/A   Clear
2:55 PM 86.0 °F 91.8 °F 71.6 °F 62% 30.18 in 10.0 mi NNE 8.1 mph - N/A   Scattered Clouds
3:15 PM 86.0 °F 91.8 °F 71.6 °F 62% 30.17 in 10.0 mi North 8.1 mph - N/A   Scattered Clouds
3:35 PM 86.0 °F 91.8 °F 71.6 °F 62% 30.17 in 7.0 mi NE 5.8 mph - N/A   Mostly Cloudy
3:55 PM 86.0 °F 91.8 °F 71.6 °F 62% 30.17 in 10.0 mi NE 6.9 mph - N/A   Mostly Cloudy
4:15 PM 86.0 °F 91.8 °F 71.6 °F 62% 30.16 in 7.0 mi NE 3.5 mph 17.3 mph N/A   Scattered Clouds
4:35 PM 86.0 °F 91.8 °F 71.6 °F 62% 30.15 in 10.0 mi NE 5.8 mph - N/A   Scattered Clouds
4:55 PM 87.8 °F 93.8 °F 71.6 °F 58% 30.15 in 10.0 mi North 5.8 mph - N/A   Clear
5:15 PM 87.8 °F 95.6 °F 73.4 °F 62% 30.15 in 10.0 mi ENE 4.6 mph - N/A   Scattered Clouds
5:35 PM 87.8 °F 93.8 °F 71.6 °F 58% 30.14 in 10.0 mi NNE 5.8 mph - N/A   Scattered Clouds
5:55 PM 86.0 °F 91.8 °F 71.6 °F 62% 30.14 in 10.0 mi NNE 4.6 mph - N/A   Mostly Cloudy
6:15 PM 84.2 °F 90.9 °F 73.4 °F 70% 30.13 in 10.0 mi NNE 3.5 mph - N/A   Mostly Cloudy
6:35 PM 84.2 °F 90.9 °F 73.4 °F 70% 30.14 in 10.0 mi NE 4.6 mph - N/A   Mostly Cloudy
6:55 PM 82.4 °F 88.2 °F 73.4 °F 74% 30.14 in 10.0 mi NNE 4.6 mph - N/A   Scattered Clouds
7:15 PM 84.2 °F 90.9 °F 73.4 °F 70% 30.14 in 10.0 mi NE 3.5 mph - N/A   Scattered Clouds
7:35 PM 82.4 °F 88.2 °F 73.4 °F 74% 30.14 in 10.0 mi NE 3.5 mph - N/A   Scattered Clouds
7:55 PM 82.4 °F 88.2 °F 73.4 °F 74% 30.14 in 10.0 mi Calm Calm - N/A   Scattered Clouds
8:15 PM 80.6 °F 86.2 °F 75.2 °F 84% 30.14 in 10.0 mi Calm Calm - N/A   Scattered Clouds
8:35 PM 78.8 °F - 75.2 °F 89% 30.14 in 10.0 mi Calm Calm - N/A   Scattered Clouds
8:55 PM 77.0 °F - 73.4 °F 89% 30.15 in 10.0 mi Calm Calm - N/A   Clear
9:15 PM 75.2 °F - 73.4 °F 94% 30.15 in 10.0 mi Calm Calm - N/A   Clear
9:35 PM 75.2 °F - 73.4 °F 94% 30.15 in 10.0 mi Calm Calm - N/A   Clear
9:55 PM 73.4 °F - 71.6 °F 94% 30.16 in 10.0 mi Calm Calm - N/A   Clear
10:15 PM 73.4 °F - 55.4 °F 53% 30.16 in 10.0 mi Calm Calm - N/A   Clear
10:35 PM 75.2 °F - 35.6 °F 24% 30.16 in 10.0 mi Calm Calm - N/A   Mostly Cloudy
10:55 PM 73.4 °F - 51.8 °F 47% 30.16 in 10.0 mi Calm Calm - N/A   Scattered Clouds
11:15 PM 73.4 °F - 46.4 °F 38% 30.17 in 10.0 mi Calm Calm - N/A   Clear
11:35 PM 71.6 °F - 55.4 °F 57% 30.16 in 10.0 mi Calm Calm - N/A   Clear
11:55 PM 71.6 °F - 59.0 °F 64% 30.16 in 10.0 mi Calm Calm - N/A   Clear